"Sample Date","Sample Time","Sensor Name","Sample Value","Units","Flow Rate","Sample Interval","Sample Volume","Laser Status","Number Channels","Micron Size 0","Counts/Channel 0","Micron Size 1","Counts/Channel 1","Micron Size 2","Counts/Channel 2","Micron Size 3","Counts/Channel 3","Micron Size 4","Counts/Channel 4","Micron Size 5","Counts/Channel 5","Micron Size 6","Counts/Channel 6","Micron Size 7","Counts/Channel 7","Micron Size 8","Counts/Channel 8","Micron Size 9","Counts/Channel 9","Micron Size 10","Counts/Channel 10","Micron Size 11","Counts/Channel 11","Micron Size 12","Counts/Channel 12","Micron Size 13","Counts/Channel 13","Micron Size 14","Counts/Channel 14","Micron Size 15","Counts/Channel 15","Micron Size 16","Counts/Channel 16","Micron Size 17","Counts/Channel 17","Micron Size 18","Counts/Channel 18","Micron Size 19","Counts/Channel 19","Micron Size 20","Counts/Channel 20","Micron Size 21","Counts/Channel 21","Micron Size 22","Counts/Channel 22","Micron Size 23","Counts/Channel 23","Micron Size 24","Counts/Channel 24","Micron Size 25","Counts/Channel 25","Micron Size 26","Counts/Channel 26","Micron Size 27","Counts/Channel 27","Micron Size 28","Counts/Channel 28","Micron Size 29","Counts/Channel 29","Micron Size 30","Counts/Channel 30","Micron Size 31","Counts/Channel 31"
"07/01/06","05:00:04","AMMA06",65155.000,"cc",28344.273,6.00,2834.428,1,6,0.100,38314.000,0.200,21308.000,0.300,4341.000,0.500,712.000,1.000,480.000,5.000,0
"07/01/06","05:00:10","AMMA06",64667.000,"cc",28331.592,6.00,2833.159,1,6,0.100,37912.000,0.200,21214.000,0.300,4431.000,0.500,657.000,1.000,452.000,5.000,1.000
"07/01/06","05:00:16","AMMA06",64337.000,"cc",28342.176,6.00,2834.218,1,6,0.100,37680.000,0.200,21074.000,0.300,4424.000,0.500,706.000,1.000,453.000,5.000,0
"07/01/06","05:00:22","AMMA06",63865.000,"cc",28316.113,6.00,2831.612,1,6,0.100,37513.000,0.200,20839.000,0.300,4339.000,0.500,711.000,1.000,463.000,5.000,0
"07/01/06","05:00:28","AMMA06",62881.000,"cc",28315.322,6.00,2831.533,1,6,0.100,36612.000,0.200,20830.000,0.300,4320.000,0.500,681.000,1.000,436.000,5.000,2.000
"07/01/06","05:00:34","AMMA06",62554.000,"cc",28287.740,6.00,2828.774,1,6,0.100,36566.000,0.200,20578.000,0.300,4239.000,0.500,698.000,1.000,472.000,5.000,1.000
"07/01/06","05:00:40","AMMA06",62711.000,"cc",28321.512,6.00,2832.151,1,6,0.100,36334.000,0.200,20951.000,0.300,4229.000,0.500,724.000,1.000,472.000,5.000,1.000
"07/01/06","05:00:46","AMMA06",62580.000,"cc",28321.539,6.00,2832.154,1,6,0.100,36503.000,0.200,20656.000,0.300,4224.000,0.500,726.000,1.000,470.000,5.000,1.000
"07/01/06","05:00:52","AMMA06",62762.000,"cc",28275.596,6.00,2827.560,1,6,0.100,36586.000,0.200,20841.000,0.300,4133.000,0.500,688.000,1.000,514.000,5.000,0
"07/01/06","05:00:58","AMMA06",62339.000,"cc",28327.527,6.00,2832.753,1,6,0.100,36179.000,0.200,20711.000,0.300,4298.000,0.500,686.000,1.000,465.000,5.000,0
"07/01/06","05:01:04","AMMA06",62694.000,"cc",28322.578,6.00,2832.258,1,6,0.100,36785.000,0.200,20456.000,0.300,4273.000,0.500,668.000,1.000,512.000,5.000,0
"07/01/06","05:01:10","AMMA06",61305.000,"cc",28340.512,6.00,2834.051,1,6,0.100,35545.000,0.200,20306.000,0.300,4269.000,0.500,696.000,1.000,487.000,5.000,2.000
"07/01/06","05:01:16","AMMA06",60356.000,"cc",28322.565,6.00,2832.257,1,6,0.100,34830.000,0.200,20195.000,0.300,4199.000,0.500,651.000,1.000,480.000,5.000,1.000
"07/01/06","05:01:22","AMMA06",59470.000,"cc",28328.385,6.00,2832.839,1,6,0.100,33894.000,0.200,20189.000,0.300,4167.000,0.500,760.000,1.000,460.000,5.000,0
"07/01/06","05:01:28","AMMA06",59787.000,"cc",28299.092,6.00,2829.909,1,6,0.100,34225.000,0.200,20295.000,0.300,4175.000,0.500,647.000,1.000,443.000,5.000,2.000
"07/01/06","05:01:34","AMMA06",59483.000,"cc",28290.613,6.00,2829.062,1,6,0.100,33926.000,0.200,20145.000,0.300,4237.000,0.500,704.000,1.000,471.000,5.000,0
"07/01/06","05:01:40","AMMA06",59781.000,"cc",28288.014,6.00,2828.802,1,6,0.100,34193.000,0.200,20094.000,0.300,4298.000,0.500,728.000,1.000,467.000,5.000,1.000
"07/01/06","05:01:46","AMMA06",59590.000,"cc",28348.943,6.00,2834.895,1,6,0.100,33935.000,0.200,20333.000,0.300,4173.000,0.500,688.000,1.000,461.000,5.000,0
"07/01/06","05:01:52","AMMA06",60211.000,"cc",28302.508,6.00,2830.251,1,6,0.100,34194.000,0.200,20591.000,0.300,4289.000,0.500,691.000,1.000,446.000,5.000,0
"07/01/06","05:01:58","AMMA06",60659.000,"cc",28312.148,6.00,2831.215,1,6,0.100,34325.000,0.200,20906.000,0.300,4266.000,0.500,682.000,1.000,479.000,5.000,1.000
"07/01/06","05:02:04","AMMA06",60331.000,"cc",28306.422,6.00,2830.642,1,6,0.100,34386.000,0.200,20491.000,0.300,4254.000,0.500,717.000,1.000,483.000,5.000,0
"07/01/06","05:02:10","AMMA06",59702.000,"cc",28312.182,6.00,2831.218,1,6,0.100,33734.000,0.200,20566.000,0.300,4200.000,0.500,738.000,1.000,464.000,5.000,0
"07/01/06","05:02:16","AMMA06",59261.000,"cc",28321.256,6.00,2832.126,1,6,0.100,33589.000,0.200,20302.000,0.300,4280.000,0.500,679.000,1.000,411.000,5.000,0
"07/01/06","05:02:22","AMMA06",59894.000,"cc",28333.158,6.00,2833.316,1,6,0.100,34098.000,0.200,20579.000,0.300,4116.000,0.500,664.000,1.000,437.000,5.000,0
"07/01/06","05:02:28","AMMA06",59872.000,"cc",28339.977,6.00,2833.998,1,6,0.100,34174.000,0.200,20346.000,0.300,4184.000,0.500,693.000,1.000,474.000,5.000,1.000
"07/01/06","05:02:34","AMMA06",60170.000,"cc",28318.256,6.00,2831.826,1,6,0.100,34182.000,0.200,20573.000,0.300,4272.000,0.500,696.000,1.000,446.000,5.000,1.000
"07/01/06","05:02:40","AMMA06",60491.000,"cc",28357.369,6.00,2835.737,1,6,0.100,34438.000,0.200,20586.000,0.300,4338.000,0.500,663.000,1.000,465.000,5.000,1.000
"07/01/06","05:02:46","AMMA06",60305.000,"cc",28308.715,6.00,2830.872,1,6,0.100,34175.000,0.200,20734.000,0.300,4292.000,0.500,667.000,1.000,436.000,5.000,1.000
"07/01/06","05:02:52","AMMA06",59948.000,"cc",28361.492,6.00,2836.149,1,6,0.100,34194.000,0.200,20365.000,0.300,4282.000,0.500,651.000,1.000,455.000,5.000,1.000
"07/01/06","05:02:58","AMMA06",59495.000,"cc",28282.582,6.00,2828.258,1,6,0.100,33605.000,0.200,20567.000,0.300,4182.000,0.500,659.000,1.000,481.000,5.000,1.000
"07/01/06","05:03:04","AMMA06",59761.000,"cc",28269.186,6.00,2826.919,1,6,0.100,33904.000,0.200,20515.000,0.300,4241.000,0.500,655.000,1.000,445.000,5.000,1.000
"07/01/06","05:03:10","AMMA06",59661.000,"cc",28302.547,6.00,2830.255,1,6,0.100,33628.000,0.200,20504.000,0.300,4348.000,0.500,708.000,1.000,473.000,5.000,0
"07/01/06","05:03:16","AMMA06",59370.000,"cc",28354.412,6.00,2835.441,1,6,0.100,33571.000,0.200,20317.000,0.300,4283.000,0.500,699.000,1.000,500.000,5.000,0
"07/01/06","05:03:22","AMMA06",59376.000,"cc",28323.598,6.00,2832.360,1,6,0.100,33559.000,0.200,20385.000,0.300,4207.000,0.500,724.000,1.000,501.000,5.000,0
"07/01/06","05:03:28","AMMA06",60209.000,"cc",28302.656,6.00,2830.266,1,6,0.100,34169.000,0.200,20516.000,0.300,4374.000,0.500,710.000,1.000,440.000,5.000,0
"07/01/06","05:03:34","AMMA06",60114.000,"cc",28311.805,6.00,2831.181,1,6,0.100,33920.000,0.200,20648.000,0.300,4405.000,0.500,666.000,1.000,474.000,5.000,1.000
"07/01/06","05:03:40","AMMA06",60030.000,"cc",28322.035,6.00,2832.204,1,6,0.100,33950.000,0.200,20575.000,0.300,4333.000,0.500,714.000,1.000,458.000,5.000,0
"07/01/06","05:03:46","AMMA06",60203.000,"cc",28318.182,6.00,2831.818,1,6,0.100,33968.000,0.200,20610.000,0.300,4412.000,0.500,699.000,1.000,514.000,5.000,0
"07/01/06","05:03:52","AMMA06",59905.000,"cc",28298.525,6.00,2829.853,1,6,0.100,33766.000,0.200,20623.000,0.300,4366.000,0.500,687.000,1.000,462.000,5.000,1.000
"07/01/06","05:03:58","AMMA06",60465.000,"cc",28343.531,6.00,2834.353,1,6,0.100,33950.000,0.200,20850.000,0.300,4519.000,0.500,667.000,1.000,478.000,5.000,1.000
"07/01/06","05:04:04","AMMA06",60619.000,"cc",28360.473,6.00,2836.047,1,6,0.100,34101.000,0.200,21082.000,0.300,4346.000,0.500,633.000,1.000,455.000,5.000,2.000
"07/01/06","05:04:10","AMMA06",60905.000,"cc",28377.807,6.00,2837.781,1,6,0.100,34064.000,0.200,21051.000,0.300,4564.000,0.500,698.000,1.000,526.000,5.000,2.000
"07/01/06","05:04:16","AMMA06",60077.000,"cc",28298.006,6.00,2829.801,1,6,0.100,33739.000,0.200,20733.000,0.300,4472.000,0.500,655.000,1.000,478.000,5.000,0
"07/01/06","05:04:22","AMMA06",60105.000,"cc",28307.315,6.00,2830.732,1,6,0.100,33511.000,0.200,20793.000,0.300,4605.000,0.500,714.000,1.000,482.000,5.000,0
"07/01/06","05:04:28","AMMA06",60642.000,"cc",28281.348,6.00,2828.135,1,6,0.100,34013.000,0.200,20978.000,0.300,4409.000,0.500,732.000,1.000,509.000,5.000,1.000
"07/01/06","05:04:34","AMMA06",60340.000,"cc",28341.959,6.00,2834.196,1,6,0.100,33807.000,0.200,20924.000,0.300,4424.000,0.500,680.000,1.000,503.000,5.000,2.000
"07/01/06","05:04:40","AMMA06",59898.000,"cc",28329.219,6.00,2832.922,1,6,0.100,33327.000,0.200,20913.000,0.300,4473.000,0.500,666.000,1.000,519.000,5.000,0
"07/01/06","05:04:46","AMMA06",60579.000,"cc",28307.109,6.00,2830.711,1,6,0.100,33794.000,0.200,21108.000,0.300,4496.000,0.500,697.000,1.000,483.000,5.000,1.000
"07/01/06","05:04:52","AMMA06",60383.000,"cc",28236.328,6.00,2823.633,1,6,0.100,33689.000,0.200,20965.000,0.300,4533.000,0.500,703.000,1.000,492.000,5.000,1.000
"07/01/06","05:04:58","AMMA06",60372.000,"cc",28314.293,6.00,2831.429,1,6,0.100,33555.000,0.200,21071.000,0.300,4594.000,0.500,673.000,1.000,476.000,5.000,3.000
"07/01/06","05:05:04","AMMA06",60140.000,"cc",28352.731,6.00,2835.273,1,6,0.100,33547.000,0.200,20898.000,0.300,4532.000,0.500,686.000,1.000,476.000,5.000,1.000
"07/01/06","05:05:10","AMMA06",60644.000,"cc",28344.043,6.00,2834.405,1,6,0.100,34077.000,0.200,20768.000,0.300,4575.000,0.500,721.000,1.000,503.000,5.000,0
"07/01/06","05:05:16","AMMA06",60114.000,"cc",28284.793,6.00,2828.480,1,6,0.100,33796.000,0.200,20717.000,0.300,4471.000,0.500,648.000,1.000,482.000,5.000,0
"07/01/06","05:05:22","AMMA06",59931.000,"cc",28327.217,6.00,2832.722,1,6,0.100,33344.000,0.200,20953.000,0.300,4407.000,0.500,731.000,1.000,496.000,5.000,0
"07/01/06","05:05:28","AMMA06",59932.000,"cc",28322.504,6.00,2832.251,1,6,0.100,33444.000,0.200,20735.000,0.300,4542.000,0.500,714.000,1.000,497.000,5.000,0
"07/01/06","05:05:34","AMMA06",59777.000,"cc",28354.356,6.00,2835.436,1,6,0.100,33544.000,0.200,20646.000,0.300,4425.000,0.500,708.000,1.000,454.000,5.000,0
"07/01/06","05:05:40","AMMA06",59708.000,"cc",28276.053,6.00,2827.606,1,6,0.100,33566.000,0.200,20549.000,0.300,4410.000,0.500,685.000,1.000,498.000,5.000,0
"07/01/06","05:05:46","AMMA06",59388.000,"cc",28350.551,6.00,2835.055,1,6,0.100,33308.000,0.200,20509.000,0.300,4422.000,0.500,657.000,1.000,492.000,5.000,0
"07/01/06","05:05:52","AMMA06",59456.000,"cc",28301.481,6.00,2830.148,1,6,0.100,33555.000,0.200,20347.000,0.300,4390.000,0.500,677.000,1.000,486.000,5.000,1.000
"07/01/06","05:05:58","AMMA06",59954.000,"cc",28348.516,6.00,2834.852,1,6,0.100,33550.000,0.200,20768.000,0.300,4463.000,0.500,683.000,1.000,490.000,5.000,0
"07/01/06","05:06:04","AMMA06",59443.000,"cc",28334.576,6.00,2833.458,1,6,0.100,33218.000,0.200,20662.000,0.300,4300.000,0.500,760.000,1.000,503.000,5.000,0
"07/01/06","05:06:10","AMMA06",59663.000,"cc",28299.389,6.00,2829.939,1,6,0.100,33352.000,0.200,20709.000,0.300,4385.000,0.500,727.000,1.000,489.000,5.000,1.000
"07/01/06","05:06:16","AMMA06",59311.000,"cc",28255.857,6.00,2825.586,1,6,0.100,33137.000,0.200,20637.000,0.300,4336.000,0.500,665.000,1.000,535.000,5.000,1.000
"07/01/06","05:06:22","AMMA06",59584.000,"cc",28351.043,6.00,2835.105,1,6,0.100,33665.000,0.200,20415.000,0.300,4298.000,0.500,720.000,1.000,485.000,5.000,1.000
"07/01/06","05:06:28","AMMA06",59748.000,"cc",28298.090,6.00,2829.809,1,6,0.100,33522.000,0.200,20691.000,0.300,4368.000,0.500,690.000,1.000,475.000,5.000,2.000
"07/01/06","05:06:34","AMMA06",59602.000,"cc",28316.982,6.00,2831.699,1,6,0.100,33625.000,0.200,20360.000,0.300,4443.000,0.500,683.000,1.000,490.000,5.000,1.000
"07/01/06","05:06:40","AMMA06",59371.000,"cc",28334.111,6.00,2833.411,1,6,0.100,33225.000,0.200,20606.000,0.300,4407.000,0.500,679.000,1.000,453.000,5.000,1.000
"07/01/06","05:06:46","AMMA06",59143.000,"cc",28281.313,6.00,2828.131,1,6,0.100,33141.000,0.200,20597.000,0.300,4285.000,0.500,641.000,1.000,479.000,5.000,0
"07/01/06","05:06:52","AMMA06",59192.000,"cc",28343.725,6.00,2834.373,1,6,0.100,33277.000,0.200,20483.000,0.300,4293.000,0.500,673.000,1.000,464.000,5.000,2.000
"07/01/06","05:06:58","AMMA06",59119.000,"cc",28311.441,6.00,2831.144,1,6,0.100,33435.000,0.200,20171.000,0.300,4345.000,0.500,726.000,1.000,442.000,5.000,0
"07/01/06","05:07:04","AMMA06",58683.000,"cc",28291.531,6.00,2829.153,1,6,0.100,32835.000,0.200,20435.000,0.300,4220.000,0.500,696.000,1.000,497.000,5.000,0
"07/01/06","05:07:10","AMMA06",59472.000,"cc",28306.758,6.00,2830.676,1,6,0.100,33512.000,0.200,20295.000,0.300,4460.000,0.500,686.000,1.000,518.000,5.000,1.000
"07/01/06","05:07:16","AMMA06",58932.000,"cc",28330.170,6.00,2833.017,1,6,0.100,32980.000,0.200,20544.000,0.300,4261.000,0.500,682.000,1.000,465.000,5.000,0
"07/01/06","05:07:22","AMMA06",58696.000,"cc",28318.897,6.00,2831.890,1,6,0.100,32930.000,0.200,20434.000,0.300,4196.000,0.500,686.000,1.000,449.000,5.000,1.000
"07/01/06","05:07:28","AMMA06",58236.000,"cc",28326.971,6.00,2832.697,1,6,0.100,32810.000,0.200,20159.000,0.300,4124.000,0.500,679.000,1.000,464.000,5.000,0
"07/01/06","05:07:34","AMMA06",58418.000,"cc",28369.184,6.00,2836.919,1,6,0.100,32703.000,0.200,20252.000,0.300,4316.000,0.500,694.000,1.000,452.000,5.000,1.000
"07/01/06","05:07:40","AMMA06",57937.000,"cc",28348.826,6.00,2834.883,1,6,0.100,32641.000,0.200,20019.000,0.300,4113.000,0.500,683.000,1.000,481.000,5.000,0
"07/01/06","05:07:46","AMMA06",57834.000,"cc",28308.982,6.00,2830.898,1,6,0.100,32274.000,0.200,20007.000,0.300,4322.000,0.500,739.000,1.000,492.000,5.000,0
"07/01/06","05:07:52","AMMA06",57975.000,"cc",28318.895,6.00,2831.890,1,6,0.100,32471.000,0.200,20230.000,0.300,4138.000,0.500,667.000,1.000,468.000,5.000,1.000
"07/01/06","05:07:58","AMMA06",57166.000,"cc",28243.121,6.00,2824.312,1,6,0.100,31775.000,0.200,20057.000,0.300,4170.000,0.500,709.000,1.000,455.000,5.000,0
"07/01/06","05:08:04","AMMA06",56267.000,"cc",28360.563,6.00,2836.056,1,6,0.100,31319.000,0.200,19637.000,0.300,4121.000,0.500,685.000,1.000,505.000,5.000,0
"07/01/06","05:08:10","AMMA06",55956.000,"cc",28310.254,6.00,2831.026,1,6,0.100,31115.000,0.200,19593.000,0.300,4136.000,0.500,597.000,1.000,515.000,5.000,0
"07/01/06","05:08:16","AMMA06",55987.000,"cc",28310.957,6.00,2831.096,1,6,0.100,31181.000,0.200,19579.000,0.300,4063.000,0.500,688.000,1.000,475.000,5.000,1.000
"07/01/06","05:08:22","AMMA06",56071.000,"cc",28301.606,6.00,2830.161,1,6,0.100,31229.000,0.200,19598.000,0.300,4042.000,0.500,704.000,1.000,497.000,5.000,1.000
"07/01/06","05:08:28","AMMA06",55788.000,"cc",28357.154,6.00,2835.716,1,6,0.100,30936.000,0.200,19539.000,0.300,4149.000,0.500,701.000,1.000,460.000,5.000,3.000
"07/01/06","05:08:34","AMMA06",56239.000,"cc",28324.000,6.00,2832.400,1,6,0.100,31342.000,0.200,19635.000,0.300,4091.000,0.500,675.000,1.000,495.000,5.000,1.000
"07/01/06","05:08:40","AMMA06",55911.000,"cc",28312.025,6.00,2831.203,1,6,0.100,30963.000,0.200,19697.000,0.300,4098.000,0.500,686.000,1.000,467.000,5.000,0
"07/01/06","05:08:46","AMMA06",56240.000,"cc",28327.096,6.00,2832.710,1,6,0.100,31210.000,0.200,19693.000,0.300,4160.000,0.500,680.000,1.000,497.000,5.000,0
"07/01/06","05:08:52","AMMA06",55762.000,"cc",28219.098,6.00,2821.910,1,6,0.100,30886.000,0.200,19541.000,0.300,4165.000,0.500,734.000,1.000,436.000,5.000,0
"07/01/06","05:08:58","AMMA06",56261.000,"cc",28300.379,6.00,2830.038,1,6,0.100,31159.000,0.200,19794.000,0.300,4140.000,0.500,714.000,1.000,454.000,5.000,0
"07/01/06","05:09:04","AMMA06",56078.000,"cc",28379.799,6.00,2837.980,1,6,0.100,31145.000,0.200,19638.000,0.300,4089.000,0.500,685.000,1.000,521.000,5.000,0
"07/01/06","05:09:10","AMMA06",56321.000,"cc",28356.295,6.00,2835.630,1,6,0.100,30994.000,0.200,19870.000,0.300,4217.000,0.500,740.000,1.000,498.000,5.000,2.000
"07/01/06","05:09:16","AMMA06",56034.000,"cc",28258.047,6.00,2825.805,1,6,0.100,31037.000,0.200,19623.000,0.300,4142.000,0.500,742.000,1.000,489.000,5.000,1.000
"07/01/06","05:09:22","AMMA06",56185.000,"cc",28294.322,6.00,2829.432,1,6,0.100,31092.000,0.200,19665.000,0.300,4232.000,0.500,720.000,1.000,474.000,5.000,2.000
"07/01/06","05:09:28","AMMA06",56607.000,"cc",28321.967,6.00,2832.197,1,6,0.100,31171.000,0.200,20059.000,0.300,4232.000,0.500,665.000,1.000,480.000,5.000,0
"07/01/06","05:09:34","AMMA06",56589.000,"cc",28321.436,6.00,2832.144,1,6,0.100,31123.000,0.200,19952.000,0.300,4316.000,0.500,682.000,1.000,514.000,5.000,2.000
"07/01/06","05:09:40","AMMA06",56871.000,"cc",28320.186,6.00,2832.019,1,6,0.100,31323.000,0.200,20086.000,0.300,4360.000,0.500,654.000,1.000,448.000,5.000,0
"07/01/06","05:09:46","AMMA06",57890.000,"cc",28321.248,6.00,2832.125,1,6,0.100,31651.000,0.200,20610.000,0.300,4410.000,0.500,680.000,1.000,538.000,5.000,1.000
"07/01/06","05:09:52","AMMA06",57729.000,"cc",28295.137,6.00,2829.514,1,6,0.100,31541.000,0.200,20535.000,0.300,4443.000,0.500,711.000,1.000,498.000,5.000,1.000
"07/01/06","05:09:58","AMMA06",57674.000,"cc",28366.322,6.00,2836.632,1,6,0.100,31670.000,0.200,20510.000,0.300,4321.000,0.500,689.000,1.000,484.000,5.000,0
"07/01/06","05:10:04","AMMA06",57044.000,"cc",28361.820,6.00,2836.182,1,6,0.100,31568.000,0.200,20070.000,0.300,4278.000,0.500,645.000,1.000,481.000,5.000,2.000
"07/01/06","05:10:10","AMMA06",57468.000,"cc",28288.229,6.00,2828.823,1,6,0.100,31415.000,0.200,20515.000,0.300,4354.000,0.500,708.000,1.000,476.000,5.000,0
"07/01/06","05:10:16","AMMA06",57879.000,"cc",28291.895,6.00,2829.190,1,6,0.100,31894.000,0.200,20395.000,0.300,4386.000,0.500,721.000,1.000,483.000,5.000,0
"07/01/06","05:10:22","AMMA06",57265.000,"cc",28273.680,6.00,2827.368,1,6,0.100,31497.000,0.200,20228.000,0.300,4346.000,0.500,715.000,1.000,478.000,5.000,1.000
"07/01/06","05:10:28","AMMA06",57517.000,"cc",28318.219,6.00,2831.822,1,6,0.100,31516.000,0.200,20561.000,0.300,4280.000,0.500,701.000,1.000,458.000,5.000,1.000
"07/01/06","05:10:34","AMMA06",57670.000,"cc",28365.193,6.00,2836.520,1,6,0.100,31729.000,0.200,20313.000,0.300,4444.000,0.500,690.000,1.000,493.000,5.000,1.000
"07/01/06","05:10:40","AMMA06",57070.000,"cc",28366.420,6.00,2836.642,1,6,0.100,31338.000,0.200,20210.000,0.300,4351.000,0.500,713.000,1.000,457.000,5.000,1.000
"07/01/06","05:10:46","AMMA06",57083.000,"cc",28257.816,6.00,2825.782,1,6,0.100,31287.000,0.200,20270.000,0.300,4346.000,0.500,714.000,1.000,466.000,5.000,0
"07/01/06","05:10:52","AMMA06",57166.000,"cc",28273.844,6.00,2827.385,1,6,0.100,31488.000,0.200,20088.000,0.300,4489.000,0.500,659.000,1.000,441.000,5.000,1.000
"07/01/06","05:10:58","AMMA06",57764.000,"cc",28330.137,6.00,2833.014,1,6,0.100,32074.000,0.200,20230.000,0.300,4315.000,0.500,668.000,1.000,477.000,5.000,0
"07/01/06","05:11:04","AMMA06",57647.000,"cc",28297.408,6.00,2829.741,1,6,0.100,31859.000,0.200,20384.000,0.300,4319.000,0.500,623.000,1.000,462.000,5.000,0
"07/01/06","05:11:10","AMMA06",57688.000,"cc",28325.875,6.00,2832.588,1,6,0.100,31556.000,0.200,20589.000,0.300,4374.000,0.500,711.000,1.000,457.000,5.000,1.000
"07/01/06","05:11:16","AMMA06",57524.000,"cc",28319.041,6.00,2831.904,1,6,0.100,31641.000,0.200,20376.000,0.300,4354.000,0.500,686.000,1.000,465.000,5.000,2.000
"07/01/06","05:11:22","AMMA06",57237.000,"cc",28240.641,6.00,2824.064,1,6,0.100,31643.000,0.200,20222.000,0.300,4273.000,0.500,649.000,1.000,450.000,5.000,0
"07/01/06","05:11:28","AMMA06",56694.000,"cc",28317.557,6.00,2831.756,1,6,0.100,30978.000,0.200,20074.000,0.300,4383.000,0.500,735.000,1.000,524.000,5.000,0
"07/01/06","05:11:34","AMMA06",56907.000,"cc",28336.787,6.00,2833.679,1,6,0.100,31327.000,0.200,20059.000,0.300,4352.000,0.500,678.000,1.000,491.000,5.000,0
"07/01/06","05:11:40","AMMA06",56523.000,"cc",28339.092,6.00,2833.909,1,6,0.100,30867.000,0.200,20121.000,0.300,4347.000,0.500,708.000,1.000,480.000,5.000,0
"07/01/06","05:11:46","AMMA06",55848.000,"cc",28361.020,6.00,2836.102,1,6,0.100,30581.000,0.200,19863.000,0.300,4220.000,0.500,711.000,1.000,473.000,5.000,0
"07/01/06","05:11:52","AMMA06",55863.000,"cc",28296.596,6.00,2829.660,1,6,0.100,30599.000,0.200,19777.000,0.300,4299.000,0.500,670.000,1.000,517.000,5.000,1.000
"07/01/06","05:11:58","AMMA06",55915.000,"cc",28279.736,6.00,2827.974,1,6,0.100,30618.000,0.200,19940.000,0.300,4241.000,0.500,658.000,1.000,458.000,5.000,0
"07/01/06","05:12:04","AMMA06",56364.000,"cc",28309.861,6.00,2830.986,1,6,0.100,30872.000,0.200,19931.000,0.300,4345.000,0.500,729.000,1.000,486.000,5.000,1.000
"07/01/06","05:12:10","AMMA06",56139.000,"cc",28306.139,6.00,2830.614,1,6,0.100,30785.000,0.200,19872.000,0.300,4321.000,0.500,683.000,1.000,478.000,5.000,0
"07/01/06","05:12:16","AMMA06",56043.000,"cc",28335.938,6.00,2833.594,1,6,0.100,30460.000,0.200,20086.000,0.300,4335.000,0.500,700.000,1.000,462.000,5.000,0
"07/01/06","05:12:22","AMMA06",55862.000,"cc",28357.500,6.00,2835.750,1,6,0.100,30557.000,0.200,19890.000,0.300,4249.000,0.500,710.000,1.000,456.000,5.000,0
"07/01/06","05:12:28","AMMA06",56204.000,"cc",28349.643,6.00,2834.964,1,6,0.100,30623.000,0.200,20152.000,0.300,4207.000,0.500,689.000,1.000,532.000,5.000,1.000
"07/01/06","05:12:34","AMMA06",56433.000,"cc",28344.815,6.00,2834.482,1,6,0.100,31004.000,0.200,19946.000,0.300,4311.000,0.500,677.000,1.000,494.000,5.000,1.000
"07/01/06","05:12:40","AMMA06",56036.000,"cc",28286.209,6.00,2828.621,1,6,0.100,31011.000,0.200,19817.000,0.300,4041.000,0.500,698.000,1.000,469.000,5.000,0
"07/01/06","05:12:46","AMMA06",56198.000,"cc",28253.803,6.00,2825.380,1,6,0.100,31011.000,0.200,19885.000,0.300,4184.000,0.500,659.000,1.000,458.000,5.000,1.000
"07/01/06","05:12:52","AMMA06",56676.000,"cc",28330.709,6.00,2833.071,1,6,0.100,31150.000,0.200,20238.000,0.300,4049.000,0.500,753.000,1.000,486.000,5.000,0
"07/01/06","05:12:58","AMMA06",56723.000,"cc",28288.057,6.00,2828.806,1,6,0.100,31317.000,0.200,19961.000,0.300,4286.000,0.500,684.000,1.000,475.000,5.000,0
"07/01/06","05:13:04","AMMA06",56892.000,"cc",28268.113,6.00,2826.812,1,6,0.100,31440.000,0.200,20104.000,0.300,4171.000,0.500,677.000,1.000,498.000,5.000,2.000
"07/01/06","05:13:10","AMMA06",56272.000,"cc",28372.441,6.00,2837.244,1,6,0.100,31219.000,0.200,19610.000,0.300,4220.000,0.500,739.000,1.000,484.000,5.000,0
"07/01/06","05:13:16","AMMA06",56420.000,"cc",28294.217,6.00,2829.422,1,6,0.100,31371.000,0.200,19676.000,0.300,4249.000,0.500,633.000,1.000,490.000,5.000,1.000
"07/01/06","05:13:22","AMMA06",56415.000,"cc",28333.051,6.00,2833.305,1,6,0.100,31172.000,0.200,19902.000,0.300,4179.000,0.500,686.000,1.000,476.000,5.000,0
"07/01/06","05:13:28","AMMA06",56307.000,"cc",28288.223,6.00,2828.823,1,6,0.100,31326.000,0.200,19606.000,0.300,4224.000,0.500,658.000,1.000,493.000,5.000,0
"07/01/06","05:13:34","AMMA06",56151.000,"cc",28313.633,6.00,2831.364,1,6,0.100,31054.000,0.200,19757.000,0.300,4204.000,0.500,660.000,1.000,475.000,5.000,1.000
"07/01/06","05:13:40","AMMA06",55692.000,"cc",28313.287,6.00,2831.329,1,6,0.100,30850.000,0.200,19562.000,0.300,4152.000,0.500,681.000,1.000,446.000,5.000,1.000
"07/01/06","05:13:46","AMMA06",56459.000,"cc",28305.604,6.00,2830.561,1,6,0.100,31407.000,0.200,19841.000,0.300,4104.000,0.500,687.000,1.000,420.000,5.000,0
"07/01/06","05:13:52","AMMA06",56185.000,"cc",28288.053,6.00,2828.805,1,6,0.100,31101.000,0.200,19828.000,0.300,4081.000,0.500,700.000,1.000,475.000,5.000,0
"07/01/06","05:13:58","AMMA06",56099.000,"cc",28403.076,6.00,2840.308,1,6,0.100,31299.000,0.200,19588.000,0.300,4029.000,0.500,699.000,1.000,483.000,5.000,1.000
"07/01/06","05:14:04","AMMA06",55850.000,"cc",28294.863,6.00,2829.487,1,6,0.100,30958.000,0.200,19648.000,0.300,4078.000,0.500,706.000,1.000,459.000,5.000,1.000